Tracking 19193 objects as of 22-Jun-2018
HD Live streaming from Space Station
objects crossing your sky now

FENGYUN 1C DEB

Track FENGYUN 1C DEB now!
10-day predictions


NORAD ID: 37012
Int'l Code: 1999-025ECU
Perigee: 792.5 km
Apogee: 1,108.1 km
Inclination: 98.6 °
Period: 103.9 minutes
Semi major axis: 7321 km
RCS: 0.0094 m2 (small)
Launch date: May 10, 1999
Source: People's Republic of China (PRC)
Launch site: Taiyaun Space Center, China (TSC)

Note: This is SATELLITE DEBRIS
aabbcc
Your satellite tracking list
Your tracking list is empty




NASA's NSSDC Master Catalog

Two Line Element Set (TLE):
1 37012U 99025ECU 18171.90584409  .00000560  00000-0  43613-3 0  9996
2 37012  98.5603 203.7360 0215536 296.6781  61.2453 13.85866895525538
Source of the keplerian elements: AFSPC